Location: Asheville, NC
(35.6000°N, 82.5500°W)
Time: 14:27:09

N. Korean satellite - Pass Details

Date: 04 January 2018
Orbit: 460 x 512 km, 97.2° (Epoch: 17 March)

Event Time Altitude Azimuth Distance (km) Brightness Sun altitude
Rises 06:50:57 0° 18° (NNE) 2,524 10.2 -10.0°
Reaches altitude 10° 06:53:06 10° 26° (NNE) 1,634 9.3 -9.6°
Maximum altitude 06:56:27 43° 99° (E) 663 7.9 -8.9°
Drops below altitude 10° 06:59:45 10° 172° (S) 1,603 9.6 -8.3°
Sets 07:01:50 0° 179° (S) 2,469 10.5 -7.9°
